User: anonymous   Login
Location: Unspecified
(0.0000°N, 0.0000°E)
Time: 10:09:30
(UTC+00:00)
Language:

COMSATBw-2 - Orbit

View from above orbital plane
View from above orbital plane
View from above satellite
View from above satellite

Ground track
Ground track

The orbit data is extracted from the following two-line orbital elements,

1 36582U 10021B   17294.54698749  .00000076  00000-0  00000+0 0  9995
2 36582   0.0299 268.6213 0001766 315.9976  15.6913  1.00271945 27298
Epoch (UTC): 21 October 2017 13:07:39
Eccentricity: 0.0001766
inclination: 0.0299°
perigee height: 35779 km
apogee height: 35793 km
right ascension of ascending node: 268.6213°
argument of perigee: 315.9976°
revolutions per day: 1.00271945
mean anomaly at epoch: 15.6913°
orbit number at epoch: 2729

The dashed part of the orbit path shows where the satellite is in the earth's shadow,  

DLR